Погода в Фукуэ

Япония     32°41′11″N   128°50′43″E
темп.,
°C
ветер,
м/с
пор.,
м/с
влажн.,
%
обл.,
%
осадки,
мм/ч
давл.,
гПа
погр.,
м
23 апреля, пт
пт2300:00+19св1261100 0.0 101612
03:00+18св1172100 0.0 101523
06:00+18с1172100 0.0 101619
09:00+19с3374100 0.0 1017234
12:00+19св3367100 0.0 1016379
15:00+21вюв465999 0.0 1014313
18:00+20в1161100 0.0 101614
21:00+18св337691 0.0 1017113
24 апреля, сб
сб2400:00+18юв587724 0.0 1017324
03:00+18вюв49795 0.0 1017425
06:00+17ссв567994 0.0 1018380
09:00+18св557384 0.0 1019418
12:00+19ссв4469100 0.0 1019507
15:00+19св447273 0.0 1018478
18:00+18ссв668299 0.1 1018403
21:00+17св568419 0.1 1019257
25 апреля, вс
вс2500:00+17ссв33845 0.1 1018248
03:00+16с34845 0.1 1017317
06:00+16с68835 0.0 1018482
09:00+17с67795 0.0 1019551
12:00+17ссв887734 0.0 1018825
15:00+17ссв1010692 0.0 1017694
18:00+16св1113700 0.0 1018640
21:00+16св12137254 0.0 1019686
26 апреля, пн
пн2600:00+15св11136976 0.0 1020717
03:00+15св11136481 0.0 1019676
06:00+15св121462100 0.0 1019742
09:00+16св12135693 0.0 1020741
12:00+16св9952100 0.0 1020723
15:00+17св7656100 0.0 1019641
18:00+17св5459100 0.0 1019485
21:00+16всв3363100 0.0 1020402
27 апреля, вт
вт2700:00+16юз116335 0.0 1021122
03:00+16ююв487699 0.0 1020399
06:00+18ююв7971100 0.1 10191023
09:00+18ююв91272100 0.4 10201118
12:00+19ююв91273100 0.1 10201205
15:00+18ю81182100 0.8 1019965
18:00+18ююз6985100 2.8 1019627
21:00+18ююз4685100 4.9 1020320